SPAINSAT NG I

Last updated on Sun Apr 12 2026 00:02:57 GMT+0000 (Coordinated Universal Time)

1 62852U 25021A 26101.24121588 .00000153 00000+0 00000+0 0 9991 2 62852 0.0197 229.3772 0000150 220.2234 225.6970 1.00271096 3319
UTC large
Height (km)
Speed (km/s)
/
Latitude / Longitude
Inclination (degrees)
Orbital Period (minutes)
Azimuth
Elevation
Range (km)
Doppler Factor

Next 0 passes for location: London (51.5072 / 0.1276)

Sorry there are no passes over London.
SPAINSAT NG I